Kuantan, Malaysia

3:36 PM +08 on October 15, 2019 (GMT +0800)
Kuantan

Weather History for WMKD - August, 2019

Change the Weather History Date:

Saturday, August 3, 2019

  Actual Average (WUND) Record (WUND)
Temperature  
Mean Temperature 84 °F -  
Max Temperature 93 °F 90 °F - (-1)
Min Temperature 75 °F 72 °F - (-1)
Cooling Degree Days 19    
Growing Degree Days 34 (Base 50)    
Moisture  
Dew Point 75 °F    
Average Humidity 76    
Maximum Humidity 94    
Minimum Humidity 47    
Precipitation  
Precipitation 0.00 in 0.24 in - ()
Sea Level Pressure  
Sea Level Pressure 29.82 in    
Wind  
Wind Speed 2 mph ()    
Max Wind Speed 8 mph    
Max Gust Speed -    
Visibility 4.5 miles    
Events      
Averages and records for this station are not official NWS values.
T = Trace of Precipitation, MM = Missing Value Source: Averaged Metar Reports

Daily Weather History Graph

Daily Weather History Graph

Search for Another Location

Airport or City:

Astronomy

Aug. 03, 2019 Rise Set
Actual Time 7:05 AM +08 7:21 PM +08
Civil Twilight 6:43 AM +08 7:43 PM +08
Nautical Twilight 6:17 AM +08 8:08 PM +08
Astronomical Twilight 5:52 AM +08 8:34 PM +08
Moon 9:01 AM +08 (8/3) 9:34 PM +08 (8/3)
Length of Visible Light 13h 00m
Length of Day
12h 16m
Waxing Crescent, 6% of the Moon is Illuminated
Aug 3
Waxing Crescent
Aug 8
First Quarter
Aug 15
Full
Aug 23
Last Quarter
Aug 30
New

Hourly Weather History & Observations

Time (+08) Temp. Heat Index Dew Point Humidity Pressure Visibility Wind Dir Wind Speed Gust Speed Precip Events Conditions
12:00 AM 78.8 °F - 73.4 °F 83% 29.86 in 5.6 mi Calm Calm - N/A   Mostly Cloudy
2:00 AM 78 °F - 74 °F 84% 29.84 in 4 mi Calm Calm - -   Haze
2:00 AM 77.0 °F - 73.4 °F 89% 29.83 in 4.3 mi Calm Calm - N/A   Mostly Cloudy
3:00 AM 77.0 °F - 75.2 °F 94% 29.83 in 4.3 mi Calm Calm - N/A   Mostly Cloudy
4:00 AM 77.0 °F - 75.2 °F 94% 29.83 in 5.0 mi Calm Calm - N/A   Mostly Cloudy
5:00 AM 76 °F - 74 °F 91% 29.83 in 5 mi Calm Calm - -   Haze
5:00 AM 77.0 °F - 73.4 °F 89% 29.83 in 5.0 mi Calm Calm - N/A   Mostly Cloudy
6:00 AM 77.0 °F - 73.4 °F 89% 29.80 in 3.7 mi Variable 2.3 mph - N/A   Mostly Cloudy
7:00 AM 77.0 °F - 73.4 °F 89% 29.83 in 0.6 mi Variable 3.5 mph - N/A   Haze
8:00 AM 78 °F - 74 °F 86% 29.86 in 1 mi Calm Calm - -   Haze
8:00 AM 78.8 °F - 75.2 °F 89% 29.86 in 0.6 mi Calm Calm - N/A   Haze
9:00 AM 80.6 °F 86.2 °F 75.2 °F 84% 29.86 in 0.6 mi Variable 3.5 mph - N/A   Haze
10:00 AM 82.4 °F 89.5 °F 75.2 °F 79% 29.89 in 1.2 mi Variable 4.6 mph - N/A   Haze
11:00 AM 85 °F - 75 °F 64% 29.88 in 1 mi South 3.5 mph - -   Haze
11:00 AM 86.0 °F 95.1 °F 75.2 °F 70% 29.89 in 1.2 mi Variable 3.5 mph - N/A   Haze
12:00 PM 87.8 °F 99.7 °F 77.0 °F 70% 29.86 in 3.7 mi Variable 2.3 mph - N/A   Mostly Cloudy
1:00 PM 89.6 °F 99.8 °F 75.2 °F 62% 29.83 in 3.7 mi SW 8.1 mph - N/A   Mostly Cloudy
2:00 PM 92 °F - 76 °F 51% 29.82 in 5 mi SSW 8.1 mph - -   Haze
2:00 PM 91.4 °F 102.5 °F 75.2 °F 59% 29.80 in 5.0 mi Variable 8.1 mph - N/A   Mostly Cloudy
3:00 PM 91.4 °F 102.5 °F 75.2 °F 59% 29.77 in 6.2 mi Variable 6.9 mph - N/A   Mostly Cloudy
4:00 PM 91.4 °F 102.5 °F 75.2 °F 59% 29.74 in 6.2 mi Variable 5.8 mph - N/A   Mostly Cloudy
5:00 PM 92 °F - 74 °F 47% 29.75 in 9 mi SSW 5.8 mph - -   Haze
5:00 PM 93.2 °F 105.0 °F 75.2 °F 56% 29.74 in 6.2 mi Variable 5.8 mph - N/A   Mostly Cloudy
6:00 PM 91.4 °F 105.1 °F 77.0 °F 63% 29.74 in 6.2 mi Variable 3.5 mph - N/A   Mostly Cloudy
7:00 PM 87.8 °F 102.5 °F 78.8 °F 75% 29.77 in 6.2 mi Variable 4.6 mph - N/A   Mostly Cloudy
8:00 PM 85 °F - 78 °F 74% 29.80 in 7 mi SE 2.3 mph - -   Partly Cloudy
8:00 PM 84.2 °F 96.1 °F 78.8 °F 84% 29.80 in 6.2 mi Variable 2.3 mph - N/A   Mostly Cloudy
9:00 PM 84.2 °F 94.1 °F 77.0 °F 79% 29.80 in 6.2 mi Calm Calm - N/A   Mostly Cloudy
10:00 PM 82.4 °F 90.9 °F 77.0 °F 84% 29.83 in 6.2 mi Calm Calm - N/A   Mostly Cloudy
11:00 PM 81 °F - 77 °F 85% 29.85 in 7 mi Calm Calm - -   Haze
11:00 PM 80.6 °F 87.1 °F 77.0 °F 89% 29.83 in 6.2 mi Calm Calm - N/A   Mostly Cloudy